Tracking 30918 objects as of 2-Jul-2025
HD Live streaming from Space Station
objects crossing your sky now

DELTA 1 R/B

Track DELTA 1 R/B now!
10-day predictions


NORAD ID: 3767
Int'l Code: 1969-016B
Perigee: 1,426.9 km
Apogee: 1,503.7 km
Inclination: 101.4 °
Period: 115.1 minutes
Semi major axis: 7836 km
RCS: 0.5861 m2 (medium)
Launch date: February 26, 1969
Source: United States (US)
Launch site: AIR FORCE EASTERN TEST RANGE (AFETR)

Note: This is a ROCKET BODY
Your satellite tracking list
Your tracking list is empty




NASA's NSSDC Master Catalog

Two Line Element Set (TLE):
1 03767U 69016B   25182.93179775 -.00000025  00000-0  11502-3 0  9991
2 03767 101.3888 207.1960 0048974 299.7038 126.1824 12.51522389573017
Source of the keplerian elements: AFSPC